Simultaneous Nadir Overpasses (SNOs) Predictions

Prediction of SNOs between METOP-A and NOAA-19 Satellite Orbit:

Table of predicted SNOs for the next 14.0 days since TLE Epoch: 2/16/2018
Index Date (METOP-A) Time (METOP-A) Lat,Lon (METOP-A) SZA (METOP-A ) Date (NOAA-19) Time (NOAA-19) Lat,Lon (NOAA-19) SZA (NOAA-19 ) Distance(km) Time Diff (sec)
1 02/22/2018 16:53:32 -78.18, 114.01 91.83 02/22/2018 16:52:18 -78.20, 114.02 91.82 2.07 74
2 02/22/2018 17:44:12 78.20, -78.57 88.18 02/22/2018 17:43:16 78.17, -78.57 88.15 2.74 56
3 02/22/2018 18:34:54 -78.16, 88.56 91.88 02/22/2018 18:34:19 -78.19, 88.58 91.85 3.25 35
4 02/22/2018 19:25:34 78.17,-104.02 88.13 02/22/2018 19:25:17 78.16,-104.01 88.12 1.67 17
5 02/22/2018 20:16:15 -78.18, 63.32 91.88 02/22/2018 20:16:20 -78.18, 63.14 91.89 4.09 5
6 02/22/2018 21:06:56 78.15,-129.47 88.08 02/22/2018 21:07:18 78.15,-129.44 88.08 0.84 22
7 02/22/2018 21:57:37 -78.16, 37.87 91.93 02/22/2018 21:58:20 -78.13, 37.92 91.96 3.34 43
8 02/22/2018 22:48:18 78.13,-154.92 88.04 02/22/2018 22:49:19 78.14,-154.88 88.05 1.11 61




NCC Satellite Simultaneous Nadir Overpasses (SNOs) Prediction Service
